| time (UTC) | temp C | wind direction | speed KPH | gust KPH | rain 1hr cm | rain 24hr cm | rain mn cm | humidity % | barometer mb |
| 20260510203017 | 31 | 97 | 3.2 | 0.0 | 0.00 | 0.00 | 0.00 | 60 | 1010.2 |
| 20260510201507 | 31 | 232 | 3.2 | 0.0 | 0.00 | 0.00 | 0.00 | 62 | 1010.1 |
| 20260510200012 | 31 | 164 | 3.2 | 0.0 | 0.00 | 0.00 | 0.00 | 60 | 1010.3 |
| 20260510194504 | 30 | 135 | 6.4 | 0.0 | 0.00 | 0.00 | 0.00 | 60 | 1010.4 |
| 20260510193006 | 30 | 125 | 4.8 | 0.0 | 0.00 | 0.00 | 0.00 | 61 | 1010.4 |
| 20260510191606 | 29 | 286 | 4.8 | 0.0 | 0.00 | 0.00 | 0.00 | 63 | 1010.6 |
| 20260510184604 | 30 | 113 | 3.2 | 0.0 | 0.00 | 0.00 | 0.00 | 64 | 1010.6 |
| 20260510183100 | 28 | 126 | 6.4 | 0.0 | 0.00 | 0.00 | 0.00 | 64 | 1010.7 |
| 20260510181601 | 28 | 114 | 4.8 | 0.0 | 0.00 | 0.00 | 0.00 | 68 | 1010.8 |
| 20260510180054 | 28 | 172 | 4.8 | 0.0 | 0.00 | 0.00 | 0.00 | 67 | 1011.0 |
| 20260510174554 | 28 | 106 | 3.2 | 0.0 | 0.00 | 0.00 | 0.00 | 65 | 1011.1 |
| 20260510173051 | 28 | 182 | 4.8 | 0.0 | 0.00 | 0.00 | 0.00 | 70 | 1011.3 |
| 20260510171553 | 28 | 138 | 4.8 | 0.0 | 0.00 | 0.00 | 0.00 | 68 | 1011.7 |
| 20260510170055 | 27 | 213 | 4.8 | 0.0 | 0.00 | 0.00 | 0.00 | 71 | 1011.9 |
| 20260510164552 | 27 | 119 | 6.4 | 0.0 | 0.00 | 0.00 | 0.00 | 70 | 1011.9 |
| 20260510163049 | 27 | 137 | 4.8 | 0.0 | 0.00 | 0.00 | 0.00 | 71 | 1011.9 |
| 20260510161548 | 27 | 131 | 4.8 | 0.0 | 0.00 | 0.00 | 0.00 | 71 | 1011.9 |
| 20260510160051 | 27 | 131 | 3.2 | 0.0 | 0.00 | 0.00 | 0.00 | 71 | 1011.9 |
| 20260510154546 | 27 | 91 | 3.2 | 0.0 | 0.00 | 0.00 | 0.00 | 70 | 1011.9 |
| 20260510153041 | 27 | 126 | 3.2 | 0.0 | 0.00 | 0.00 | 0.00 | 72 | 1011.8 |
| 20260510151537 | 26 | 120 | 3.2 | 0.0 | 0.00 | 0.00 | 0.00 | 73 | 1011.8 |
| 20260510150041 | 26 | 130 | 3.2 | 0.0 | 0.00 | 0.00 | 0.00 | 74 | 1011.7 |
| 20260510144535 | 26 | 98 | 1.6 | 0.0 | 0.00 | 0.00 | 0.00 | 75 | 1011.7 |
| 20260510143027 | 25 | 130 | 1.6 | 0.0 | 0.00 | 0.00 | 0.00 | 76 | 1011.4 |
| 20260510141529 | 24 | 152 | 3.2 | 0.0 | 0.00 | 0.00 | 0.00 | 78 | 1011.3 |
| 20260510140020 | 23 | 141 | 3.2 | 0.0 | 0.00 | 0.00 | 0.00 | 80 | 1011.2 |
| 20260510134518 | 22 | 145 | 3.2 | 0.0 | 0.00 | 0.00 | 0.00 | 82 | 1011.0 |
| 20260510133017 | 21 | 141 | 1.6 | 0.0 | 0.00 | 0.00 | 0.00 | 85 | 1010.7 |
| 20260510131515 | 21 | 120 | 1.6 | 0.0 | 0.00 | 0.00 | 0.00 | 87 | 1010.5 |
| 20260510130012 | 20 | 135 | 0.0 | 0.0 | 0.00 | 0.00 | 0.00 | 88 | 1010.3 |
| 20260510124511 | 20 | 145 | 0.0 | 0.0 | 0.00 | 0.00 | 0.00 | 89 | 1010.0 |
| 20260510123010 | 19 | 112 | 0.0 | 0.0 | 0.00 | 0.00 | 0.00 | 89 | 1009.9 |
| 20260510121506 | 19 | 128 | 0.0 | 0.0 | 0.00 | 0.00 | 0.00 | 89 | 1009.4 |
| 20260510120005 | 19 | 132 | 0.0 | 0.0 | 0.00 | 0.00 | 0.00 | 88 | 1009.1 |
| 20260510114504 | 19 | 133 | 0.0 | 0.0 | 0.00 | 0.00 | 0.00 | 88 | 1009.1 |
| 20260510113003 | 20 | 279 | 0.0 | 0.0 | 0.00 | 0.00 | 0.00 | 88 | 1009.0 |
| 20260510111600 | 20 | 279 | 0.0 | 0.0 | 0.00 | 0.00 | 0.00 | 86 | 1008.9 |
| 20260510110059 | 20 | 278 | 0.0 | 0.0 | 0.00 | 0.00 | 0.00 | 86 | 1009.0 |
| 20260510104556 | 20 | 259 | 0.0 | 0.0 | 0.00 | 0.00 | 0.00 | 86 | 1008.8 |
| 20260510103100 | 20 | 160 | 0.0 | 0.0 | 0.00 | 0.00 | 0.00 | 86 | 1008.6 |
| 20260510101603 | 21 | 125 | 1.6 | 0.0 | 0.00 | 0.00 | 0.00 | 85 | 1008.5 |
| 20260510100052 | 21 | 202 | 1.6 | 0.0 | 0.00 | 0.00 | 0.00 | 85 | 1008.1 |
| 20260510094552 | 21 | 175 | 1.6 | 0.0 | 0.00 | 0.00 | 0.00 | 84 | 1008.2 |
| 20260510093051 | 21 | 168 | 1.6 | 0.0 | 0.00 | 0.00 | 0.00 | 84 | 1008.2 |
| 20260510091547 | 21 | 174 | 1.6 | 0.0 | 0.00 | 0.00 | 0.00 | 83 | 1008.1 |
| 20260510090050 | 21 | 160 | 0.0 | 0.0 | 0.00 | 0.00 | 0.00 | 82 | 1008.1 |
| 20260510084545 | 21 | 222 | 1.6 | 0.0 | 0.00 | 0.00 | 0.00 | 82 | 1008.1 |
| 20260510083043 | 21 | 174 | 1.6 | 0.0 | 0.00 | 0.00 | 0.00 | 81 | 1008.3 |
| 20260510081553 | 21 | 132 | 1.6 | 0.0 | 0.00 | 0.00 | 0.00 | 81 | 1008.4 |
| 20260510080042 | 21 | 146 | 0.0 | 0.0 | 0.00 | 0.00 | 0.00 | 80 | 1008.5 |
| 20260510074541 | 21 | 228 | 0.0 | 0.0 | 0.00 | 0.00 | 0.00 | 79 | 1008.5 |
| 20260510073038 | 22 | 135 | 1.6 | 0.0 | 0.00 | 0.00 | 0.00 | 78 | 1008.7 |
| 20260510071537 | 22 | 153 | 1.6 | 0.0 | 0.00 | 0.00 | 0.00 | 77 | 1008.5 |
| 20260510070040 | 22 | 141 | 3.2 | 0.0 | 0.00 | 0.00 | 0.00 | 77 | 1008.5 |
| 20260510064536 | 22 | 309 | 1.6 | 0.0 | 0.00 | 0.00 | 0.00 | 76 | 1008.5 |
| 20260510063034 | 22 | 156 | 1.6 | 0.0 | 0.00 | 0.00 | 0.00 | 75 | 1008.5 |
| 20260510061533 | 22 | 150 | 3.2 | 0.0 | 0.00 | 0.00 | 0.00 | 74 | 1008.4 |
| 20260510060034 | 22 | 131 | 1.6 | 0.0 | 0.00 | 0.00 | 0.00 | 75 | 1008.4 |
| 20260510054540 | 22 | 126 | 0.0 | 0.0 | 0.00 | 0.00 | 0.00 | 77 | 1008.5 |
| 20260510053028 | 22 | 149 | 1.6 | 0.0 | 0.00 | 0.00 | 0.00 | 78 | 1008.4 |
| 20260510051533 | 23 | 153 | 0.0 | 0.0 | 0.00 | 0.00 | 0.00 | 80 | 1008.4 |
| 20260510050030 | 23 | 145 | 1.6 | 0.0 | 0.00 | 0.00 | 0.00 | 81 | 1008.4 |
| 20260510044526 | 23 | 134 | 0.0 | 0.0 | 0.00 | 0.00 | 0.00 | 82 | 1008.3 |
| 20260510043025 | 23 | 133 | 0.0 | 0.0 | 0.00 | 0.00 | 0.00 | 82 | 1008.4 |
| 20260510041523 | 23 | 133 | 0.0 | 0.0 | 0.00 | 0.00 | 0.00 | 80 | 1008.2 |
| 20260510040025 | 23 | 133 | 0.0 | 0.0 | 0.00 | 0.00 | 0.00 | 79 | 1008.2 |
| 20260510034522 | 24 | 133 | 0.0 | 0.0 | 0.00 | 0.00 | 0.00 | 78 | 1008.1 |
| 20260510033021 | 25 | 133 | 0.0 | 0.0 | 0.00 | 0.00 | 0.00 | 77 | 1008.1 |
| 20260510031531 | 25 | 133 | 0.0 | 0.0 | 0.00 | 0.00 | 0.00 | 76 | 1007.9 |
| 20260510030023 | 25 | 139 | 1.6 | 0.0 | 0.00 | 0.00 | 0.00 | 75 | 1007.7 |
| 20260510024521 | 25 | 160 | 1.6 | 0.0 | 0.00 | 0.00 | 0.00 | 75 | 1007.5 |
| 20260510023020 | 25 | 167 | 1.6 | 0.0 | 0.00 | 0.00 | 0.00 | 74 | 1007.2 |
| 20260510021528 | 25 | 135 | 0.0 | 0.0 | 0.00 | 0.00 | 0.00 | 72 | 1007.0 |
| 20260510020019 | 26 | 135 | 0.0 | 0.0 | 0.00 | 0.00 | 0.00 | 69 | 1006.6 |
| 20260510014519 | 26 | 135 | 0.0 | 0.0 | 0.00 | 0.00 | 0.00 | 67 | 1006.5 |
| 20260510013019 | 27 | 137 | 0.0 | 0.0 | 0.00 | 0.00 | 0.00 | 65 | 1006.4 |
| 20260510011519 | 27 | 130 | 1.6 | 0.0 | 0.00 | 0.00 | 0.00 | 64 | 1006.4 |
| 20260510010019 | 28 | 144 | 1.6 | 0.0 | 0.00 | 0.00 | 0.00 | 63 | 1006.3 |
| 20260510004517 | 28 | 130 | 3.2 | 0.0 | 0.00 | 0.00 | 0.00 | 62 | 1006.2 |
| 20260510003016 | 29 | 116 | 3.2 | 0.0 | 0.00 | 0.00 | 0.00 | 60 | 1006.0 |
| 20260510001515 | 30 | 135 | 3.2 | 0.0 | 0.00 | 0.00 | 0.00 | 60 | 1005.9 |
| 20260510000020 | 30 | 146 | 1.6 | 0.0 | 0.00 | 0.00 | 0.00 | 58 | 1005.8 |
| 20260509234515 | 30 | 104 | 3.2 | 0.0 | 0.00 | 0.00 | 0.00 | 57 | 1005.6 |
| 20260509233014 | 30 | 144 | 3.2 | 0.0 | 0.00 | 0.00 | 0.00 | 56 | 1005.6 |
| 20260509231513 | 31 | 139 | 3.2 | 0.0 | 0.00 | 0.00 | 0.00 | 54 | 1005.6 |
| 20260509230014 | 31 | 143 | 3.2 | 0.0 | 0.00 | 0.00 | 0.00 | 53 | 1005.6 |
| 20260509224513 | 31 | 165 | 3.2 | 0.0 | 0.00 | 0.00 | 0.00 | 52 | 1005.6 |
| 20260509223018 | 31 | 147 | 3.2 | 0.0 | 0.00 | 0.00 | 0.00 | 50 | 1005.7 |
| 20260509221512 | 31 | 128 | 3.2 | 0.0 | 0.00 | 0.00 | 0.00 | 49 | 1005.6 |
| 20260509220012 | 31 | 122 | 3.2 | 0.0 | 0.00 | 0.00 | 0.00 | 50 | 1005.6 |
| 20260509214509 | 31 | 122 | 3.2 | 0.0 | 0.00 | 0.00 | 0.00 | 52 | 1005.7 |
| 20260509213008 | 32 | 53 | 1.6 | 0.0 | 0.00 | 0.00 | 0.00 | 52 | 1005.8 |
| 20260509211514 | 31 | 86 | 3.2 | 0.0 | 0.00 | 0.00 | 0.00 | 55 | 1006.1 |
| 20260509210002 | 32 | 97 | 1.6 | 0.0 | 0.00 | 0.00 | 0.00 | 55 | 1006.3 |
| 20260509204601 | 31 | 139 | 3.2 | 0.0 | 0.00 | 0.00 | 0.00 | 51 | 1006.5 |